Simultaneous Nadir Overpasses (SNOs) Predictions

Prediction of SNOs between METOP-C and LANDSAT-8 Satellite Orbit:

Table of predicted SNOs for the next 14.0 days since TLE Epoch: 10/12/2019
Index Date (METOP-C) Time (METOP-C) Lat,Lon (METOP-C) SZA (METOP-C ) Date (LANDSAT-8) Time (LANDSAT-8) Lat,Lon (LANDSAT-8) SZA (LANDSAT-8 ) Distance(km) Time Diff (sec)
1 10/14/2019 13:59:59 -81.14,-169.91 88.32 10/14/2019 14:01:09 -81.14,-170.05 88.31 2.55 70
2 10/14/2019 14:50:37 81.16, -1.92 91.78 10/14/2019 14:50:34 81.17, -1.97 91.78 0.94 3
3 10/17/2019 09:34:22 -81.13,-103.94 87.33 10/17/2019 09:35:25 -81.13,-103.76 87.28 3.03 63
4 10/17/2019 10:24:59 81.16, 64.43 92.82 10/17/2019 10:24:50 81.16, 64.30 92.80 2.27 9
5 10/20/2019 05:08:43 -81.14, -37.22 86.26 10/20/2019 05:09:40 -81.14, -37.13 86.22 1.62 57
6 10/20/2019 05:59:21 81.16, 130.77 93.85 10/20/2019 05:59:05 81.17, 130.92 93.86 2.57 16
7 10/23/2019 00:43:03 -81.15, 29.49 85.21 10/23/2019 00:43:54 -81.15, 29.48 85.19 0.47 51
8 10/23/2019 01:33:42 81.16,-162.87 94.85 10/23/2019 01:33:20 81.15,-162.85 94.83 0.61 22
9 10/25/2019 20:17:25 -81.15, 95.83 84.24 10/25/2019 20:18:10 -81.14, 95.71 84.24 2.23 45




NCC Satellite Simultaneous Nadir Overpasses (SNOs) Prediction Service
